Weather History for Decimomannu, Italy

Change the Weather History Date:

Tuesday, April 16, 2013

  Actual Average Record
Temperature  
Mean Temperature 61 °F -  
Max Temperature 77 °F 71 °F 78 °F (2006)
Min Temperature 45 °F 49 °F 39 °F (2008)
Degree Days  
Heating Degree Days 4    
Growing Degree Days 11 (Base 50)    
Moisture  
Dew Point 49 °F    
Average Humidity 67    
Maximum Humidity 93    
Minimum Humidity 32    
Precipitation  
Precipitation 0.00 in 0.05 in - ()
Sea Level Pressure  
Sea Level Pressure 30.14 in    
Wind  
Wind Speed 4 mph ()    
Max Wind Speed 12 mph    
Max Gust Speed -    
Visibility 8.9 miles    
Events      
Averages and records for this station are not official NWS values.
T = Trace of Precipitation, MM = Missing Value Source: Averaged Metar Reports

Daily Weather History Graph

Daily Weather History Graph

Search for Another Location

Airport:

Trip Planner

Search our weather history database for the weather conditions in past years. The results will help you decide how hot, cold, wet, or windy it might be!

Date:

Astronomy

Apr. 16, 2013 Rise Set
Actual Time 6:45 AM CEST 8:02 PM CEST
Civil Twilight 6:17 AM CEST 8:30 PM CEST
Nautical Twilight 5:44 AM CEST 9:04 PM CEST
Astronomical Twilight 5:09 AM CEST 9:39 PM CEST
Moon 10:50 AM CEST (4/16) 12:47 AM CEST (4/16)
Length of Visible Light 14h 12m
Length of Day
13h 17m
Waxing Crescent, 31% of the Moon is Illuminated
Apr 16
Waxing Crescent
Apr 18
First Quarter
Apr 25
Full
May 2
Last Quarter
May 10
New

Hourly Weather History & Observations

Time (CEST) Temp. Windchill Dew Point Humidity Pressure Visibility Wind Dir Wind Speed Gust Speed Precip Events Conditions
2:00 AM 51 °F - 49 °F 90% 30.17 in 9 mi North 3.5 mph - -  
2:55 AM 48.2 °F - 46.4 °F 93% 30.15 in - NNW 3.5 mph - N/A   Clear
3:55 AM 46.4 °F 44.3 °F 42.8 °F 87% 30.12 in - NW 4.6 mph - N/A   Clear
5:00 AM 46 °F - 43 °F 85% 30.15 in 7 mi Calm Calm - -  
6:55 AM 44.6 °F 42.2 °F 41.0 °F 87% 30.12 in 6.2 mi North 4.6 mph - N/A   Partly Cloudy
8:00 AM 48 °F - 44 °F 81% 30.18 in 12 mi NNW 1.2 mph - -   Clear
8:55 AM 50.0 °F - 46.4 °F 87% 30.15 in - WNW 2.3 mph - N/A   Clear
10:55 AM 62.6 °F - 53.6 °F 72% 30.18 in - NW 1.2 mph - N/A   Clear
11:00 AM 62 °F - 53 °F 65% 30.19 in 12 mi NW 1.2 mph - -   Scattered Clouds
11:55 AM 68.0 °F - 51.8 °F 56% 30.15 in - WNW 4.6 mph - N/A   Clear
1:55 PM 73.4 °F - 50.0 °F 44% 30.12 in 6.2 mi WNW 5.8 mph - N/A   Partly Cloudy
2:00 PM 74 °F - 50 °F 32% 30.14 in 12 mi WNW 5.8 mph - -   Scattered Clouds
3:55 PM 75.2 °F - 53.6 °F 47% 30.09 in 6.2 mi SE 10.4 mph - N/A   Partly Cloudy
4:55 PM 71.6 °F - 50.0 °F 46% 30.09 in 6.2 mi SE 11.5 mph - N/A   Partly Cloudy
5:00 PM 72 °F - 50 °F 35% 30.11 in 12 mi SE 11.5 mph - -   Scattered Clouds
6:55 PM 68.0 °F - 51.8 °F 56% 30.12 in 6.2 mi ESE 4.6 mph - N/A   Partly Cloudy
7:55 PM 64.4 °F - 48.2 °F 56% 30.12 in - North 5.8 mph - N/A   Clear
8:00 PM 65 °F - 49 °F 46% 30.14 in 12 mi North 5.8 mph - -   Scattered Clouds
9:55 PM 57.2 °F - 51.8 °F 82% 30.15 in - NE 6.9 mph - N/A   Clear
10:55 PM 55.4 °F - 48.2 °F 77% 30.15 in - NNE 6.9 mph - N/A   Clear
11:00 PM 56 °F - 49 °F 71% 30.17 in 9 mi NNE 6.9 mph - -  
11:55 PM 55.4 °F - 51.8 °F 88% 30.15 in - NW 2.3 mph - N/A   Clear